SL-14 R/B, 23005

Orbit data source: Space-Track

SL-14 R/B, 23005 is space debris in LEO originally from a launch on Sat, 12 Feb 1994 UTC launched from the Plesetsk Missile And Space Complex (PKMTR). Debris objects in space refer to the collection of defunct objects orbiting the Earth. Examples of debris include non-operational satellites, rocket bodies, and fragments generated from explosions, collisions, or faulty payload assembly.

Loading next visibility...
SL-14 R/B details
Identifier
23005, 1994-011G
Orbit
LEO
Last TLE update19 hours ago
Origin
Flag of CISVKS (CIS)
ManufacturerYuzhnoe
MissionSpacecraft
Bus & MotorS5M, Unknown motor
Mass1,600 kg wet, 1,600 kg dry
Launch date (UTC)
1994-02-12 (31 years ago)
Launch vehicleUnknown
Launch site
Plesetsk Missile And Space Complex (PKMTR)
Object type
Payload
Rocket body
Debris
Shape & HBRCyl, 2.7 m
Radar Cross Section7.351 m², Large (>1 m²)

Expand to show TLE details & history

TLE from 19 hours ago
0 SL-14 R/B
1 23005U 94011G   25035.49839240  .00000026  00000-0  93047-4 0  9994
2 23005  82.5786  16.3441 0041765 145.4189 339.4351 12.55216030419313
Epoch: 2025-02-04T11:57Z
Definitive object data (Epoch: 2025-02-04T11:57:41.103Z)
Latitude54.71931°
Longitude-128.53566°
Altitude1,421.157 km
Speed7.169 km/s
True Right ascension12h 23m 09s
True Declination54° 34' 15"
Sunlit
Object was in full shadow at TLE epoch
Visualization TLE readout
Latitude48.85624°
Longitude70.06018°
Altitude1,452.7 km
Speed7.139 km/s
Apparent Right ascension23h 15m 05s
Apparent Declination12° 36' 15"
Sunlit
Object is in daylight
Visualization observer readout
Local Sidereal Time08:43:45
Azimuth317.876° NNW
Elevation-26.816°
Doppler factor1
Orbital elements
Apogee altitude1,472.737 km
Perigee altitude1,407.431 km
Semi-major axis7,818.221 km
Eccentricity0.0041765
Inclination82.5786°
RAAN16.3441°
Arg. of periapsis145.4189°
True anomaly339.26616°
Mean anomaly339.4351°
Eccentric anomaly339.35071°
Mean motion3.13965 °/min
BSTAR0.000093047
Orbital period114.66 mins
Loading maneuver chart data...
Loading historical data...
Loading historical data...
Loading historical data...
Loading historical data...
Loading historical data...
Loading historical data...
Loading historical data...

SL-14 R/B Visibility forecast

Observer location: undefined°, undefined

Span
Click to sort rows by Start time (UTC) header in descending order
Start Az.
Max El. time (UTC)
Max El. Az.
Max El.
End time (UTC)
End Az.
12 mins2025-02-05 08:57:32.173Z17.391° NNE2025-02-05 09:03:32.173Z67.304° ENE23.342°2025-02-05 09:09:32.173Z117.884° SE
14 mins2025-02-05 10:53:32.173Z343.827° N2025-02-05 10:59:32.173Z280.236° WNW42.093°2025-02-05 11:07:32.173Z189.188° SSW
12 mins2025-02-05 21:51:32.173Z129.133° SE2025-02-05 21:56:32.173Z87.017° E24.593°2025-02-05 22:03:32.173Z30.108° NE
15 mins2025-02-05 23:44:32.173Z203.372° SW2025-02-05 23:51:32.173Z268.471° W41.03°2025-02-05 23:59:32.173Z359.696° N
|